Grayson, KY (41143)

4:12 AM EST on February 08, 2016 (GMT -0500)
Green | | Change Station
CLOSE
Current Station
Personal Weather Station
Location: Olive Hill, KY
Elevation: 883 ft
Nearby Weather Stations
Active Advisory: Winter Weather Advisory

Elev 883 ft 38.19 °N, 83.08 °W | Updated 28 seconds ago

Overcast
Overcast
37.4 °F
Feels Like 37 °F
N
0.0
Wind Variable Wind from North
Gusts 0.0 mph

Today
High -- | Low -- °F
--% Chance of Precip.
Yesterday
High -- | Low -- °F
Precip. -- in
Pressure 29.71 in
Visibility 10.0 miles
Clouds Mostly Cloudy 10000 ft
Windchill 37 °F
Dew Point 4 °F
Humidity 24%
Rainfall Not available.
Snow Depth Not available.
7:30 AM 6:01 PM
Waning Crescent, 0% visible
METAR KHTS 080851Z 20006KT 10SM BKN100 04/M06 A2971 RMK AO2 SLP061 T00391056 56032
Pressure 29.71 in
Visibility 10.0 miles
Clouds Mostly Cloudy 10000 ft
Windchill 37 °F
Dew Point 4 °F
Humidity 24%
Rainfall Not available.
Snow Depth Not available.
7:30 AM 6:01 PM
Waning Crescent, 0% visible
METAR KHTS 080851Z 20006KT 10SM BKN100 04/M06 A2971 RMK AO2 SLP061 T00391056 56032

10-Day Weather Forecast

Almanac

Astronomy

Feb. 08, 2016 Rise Set
Actual Time
Civil Twilight
Nautical Twilight
Astronomical Twilight
Moon
Length of Visible Light
Length of Day
Tomorrow will be .
, % of the Moon is Illuminated

Today's Extremes

State Highs State Lows

Community

WunderPhotos

Upload Photos

1,891,412 photos uploaded!

WunderBlog® & News

Nearby

Air Quality

  Air Quality AQ Index Pollutant
Not available.

Snow Depth

Station Depth Elevation

Earthquake Activity

City Distance Mag. Time & Date
Minimum magnitude displayed is 2.5.

Coastal Water Temperatures

Place Temperature

Stations

Nearby Weather Stations

Station Location Temp. Windchill Dew Point Humidity Wind Precip. Elev Updated Type
                   

Watches & Warnings

Winter Weather Advisory
Issued: 4:03 AM EST Feb. 8, 2016 – National Weather Service

... Winter Weather Advisory in effect from 7 PM this evening to
7 am EST Wednesday...

The National Weather Service in Charleston has issued a Winter
Weather Advisory for snow... which is in effect from 7 PM this
evening to 7 am EST Wednesday.

* Hazard types... snow.

* Snow accumulations... snow accumulation of 2 to 6 inches over a
36 hour period. Some settling and melting of fallen snow is
expected to occur during the advisory period.

* Timing... snow will be around for most of the week with varying
intensity.

* Impacts... travel may be difficult at times. Visibilities will
be limited at times.


Precautionary/preparedness actions...

A Winter Weather Advisory for snow means that periods of snow
will cause primarily travel difficulties. Be prepared for snow
covered roads and limited visibilities... and use caution while
driving.